TimeCDT,TemperatureF,Dew PointF,Humidity,Sea Level PressureIn,VisibilityMPH,Wind Direction,Wind SpeedMPH,Gust SpeedMPH,PrecipitationIn,Events,Conditions,WindDirDegrees,DateUTC
12:53 AM,81.0,71.1,72,29.89,10.0,SW,8.1,-,N/A,,Clear,230,2013-06-13 05:53:00
1:53 AM,81.0,72.0,74,29.89,10.0,SW,11.5,-,N/A,,Clear,230,2013-06-13 06:53:00
2:53 AM,81.0,72.0,74,29.89,10.0,WSW,9.2,-,N/A,,Clear,240,2013-06-13 07:53:00
3:53 AM,80.1,72.0,76,29.88,10.0,WSW,9.2,-,N/A,,Scattered Clouds,240,2013-06-13 08:53:00
4:53 AM,79.0,72.0,79,29.88,10.0,WSW,9.2,-,N/A,,Clear,240,2013-06-13 09:53:00
5:53 AM,79.0,72.0,79,29.90,10.0,WSW,8.1,-,N/A,,Clear,240,2013-06-13 10:53:00
6:53 AM,81.0,72.0,74,29.91,10.0,West,10.4,-,N/A,,Clear,260,2013-06-13 11:53:00
7:53 AM,84.0,72.0,67,29.91,10.0,West,12.7,20.7,N/A,,Clear,270,2013-06-13 12:53:00
8:53 AM,88.0,72.0,59,29.91,10.0,West,11.5,20.7,N/A,,Clear,280,2013-06-13 13:53:00
9:53 AM,90.0,72.0,55,29.91,10.0,WNW,12.7,18.4,N/A,,Clear,300,2013-06-13 14:53:00
10:53 AM,91.0,72.0,53,29.92,10.0,NW,10.4,17.3,N/A,,Mostly Cloudy,310,2013-06-13 15:53:00
11:53 AM,93.0,66.9,42,29.92,10.0,WNW,13.8,20.7,N/A,,Clear,290,2013-06-13 16:53:00
12:53 PM,91.9,63.0,38,29.92,10.0,NNW,12.7,19.6,N/A,,Clear,330,2013-06-13 17:53:00
1:53 PM,91.9,64.9,41,29.93,10.0,North,11.5,18.4,N/A,,Clear,360,2013-06-13 18:53:00
2:53 PM,91.9,64.9,41,29.92,10.0,NNE,12.7,17.3,N/A,,Clear,30,2013-06-13 19:53:00
3:53 PM,93.0,66.0,41,29.91,10.0,NNE,5.8,19.6,N/A,,Clear,20,2013-06-13 20:53:00
4:53 PM,91.0,66.0,44,29.91,10.0,NE,11.5,18.4,N/A,,Scattered Clouds,40,2013-06-13 21:53:00
5:53 PM,90.0,66.0,45,29.91,10.0,NE,10.4,-,N/A,,Partly Cloudy,50,2013-06-13 22:53:00
6:53 PM,87.1,66.0,49,29.91,10.0,NNE,5.8,-,N/A,,Clear,30,2013-06-13 23:53:00
7:53 PM,82.0,64.9,56,29.93,10.0,NE,8.1,-,N/A,,Clear,50,2013-06-14 00:53:00
8:53 PM,78.1,64.0,62,29.94,10.0,NE,6.9,-,N/A,,Clear,50,2013-06-14 01:53:00
9:53 PM,75.0,66.0,73,29.96,10.0,Calm,Calm,-,N/A,,Partly Cloudy,0,2013-06-14 02:53:00
10:53 PM,73.0,66.0,79,29.96,10.0,Calm,Calm,-,N/A,,Clear,0,2013-06-14 03:53:00
11:53 PM,71.1,64.9,81,29.95,10.0,Calm,Calm,-,N/A,,Clear,0,2013-06-14 04:53:00